Regional Weather Roundup
Issued by NWS

Home | Current Version | Previous Version | Graphics & Text | Print | Product List | Glossary On
Versions: 1 2 3 4 5 6 7 8 9 10 11 12 13 14 15 16 17 18 19 20 21 22 23 24 25 26 27 28 29 30 31 32 33 34 35 36 37 38 39 40 41 42 43 44 45 46 47 48 49 50
000
ASUS43 KLMK 181910
RWRKY
SDFRWRKY ALL
KENTUCKY REGIONAL WEATHER ROUNDUP
NATIONAL WEATHER SERVICE LOUISVILLE KY
200 PM EST SAT NOV 18 2017

NOTE "FAIR" INDICATES FEW OR NO CLOUDS BELOW 12,000 FEET
WITH NO SIGNIFICANT WEATHER AND/OR OBSTRUCTIONS TO VISIBILITY.

KYZ001>023-026-027-061>063-070>075-182000-
WESTERN AND SOUTH CENTRAL KENTUCKY

CITY           SKY/WX    TMP DP  RH WIND       PRES   REMARKS
PADUCAH        MOSUNNY   71  61  70 SW15G36   29.35F
HENDERSON      CLOUDY    69  61  75 S21G31    29.33F
OWENSBORO      CLOUDY    69  61  75 S30G38    29.32F
HOPKINSVILLE   CLOUDY    67  61  81 S17G28    29.44F
BOWLING GREEN  CLOUDY    64  61  90 S17       29.50F
GLASGOW        DRIZZLE   60  60 100 SW12G21   29.52F
$$

KYZ024-025-028>034-038-045-046-053-182000-
NORTH CENTRAL KENTUCKY

CITY           SKY/WX    TMP DP  RH WIND       PRES   REMARKS
LOUISVILLE/SDF LGT RAIN  66  59  78 S23G36    29.36F
LOUISVILLE/LOU LGT RAIN  65  60  84 S25G44    29.38F
FORT KNOX      CLOUDY    63  61  94 S23G32    29.37F
$$

KYZ035>037-039>044-047>052-055>060-089>105-182000-
NORTHEAST KENTUCKY

CITY           SKY/WX    TMP DP  RH WIND       PRES   REMARKS
LEXINGTON      CLOUDY    65  55  70 S31G44    29.45F
COVINGTON      CLOUDY    65  58  78 S29G43    29.29F
FRANKFORT      CLOUDY    65  55  70 S35G45    29.41F
$$

KYZ054-064>069-076>088-106>120-182000-
SOUTHEAST KENTUCKY

CITY           SKY/WX    TMP DP  RH WIND       PRES   REMARKS
JACKSON        CLOUDY    64  49  57 VRB7G33   29.56F
LONDON         CLOUDY    63  50  62 SW18G33   29.60F
SOMERSET       CLOUDY    61  52  72 S13G21    29.60F
MIDDLESBORO    CLOUDY    60  48  65 SW9G21    29.68F
MONTICELLO     LGT RAIN  61  55  81 VRB6G18   29.60F
$$





USA.gov is the U.S. government's official web portal to all federal, state and local government web resources and services.